Weather History for Crestview, FL

Change the Weather History Date:

Friday, March 16, 2012

  Actual Average Record
Temperature  
Mean Temperature 69 °F -  
Max Temperature 84 °F - - ()
Min Temperature 55 °F - - ()
Cooling Degree Days 4    
Growing Degree Days 19 (Base 50)    
Moisture  
Dew Point 57 °F    
Average Humidity 73    
Maximum Humidity 100    
Minimum Humidity 36    
Precipitation  
Precipitation 0.00 in - - ()
Sea Level Pressure  
Sea Level Pressure 30.20 in    
Wind  
Wind Speed 2 mph (SSW)    
Max Wind Speed 12 mph    
Max Gust Speed -    
Visibility 9 miles    
Events      
T = Trace of Precipitation, MM = Missing Value Source: NWS Daily Summary

Daily Weather History Graph

Daily Weather History Graph

Search for Another Location

Airport:

Trip Planner

Search our weather history database for the weather conditions in past years. The results will help you decide how hot, cold, wet, or windy it might be!

Date:

Astronomy

Mar. 16, 2012 Rise Set
Actual Time 6:54 AM CDT 6:55 PM CDT
Civil Twilight 6:30 AM CDT 7:19 PM CDT
Nautical Twilight 6:02 AM CDT 7:47 PM CDT
Astronomical Twilight 5:34 AM CDT 8:15 PM CDT
Moon 2:50 AM CDT (3/16) 1:35 PM CDT (3/16)
Length of Visible Light 12h 49m
Length of Day
12h 01m
Waning Crescent, 32% of the Moon is Illuminated
Mar 16
Waning Crescent
Mar 22
New
Mar 30
First Quarter
Apr 6
Full
Apr 13
Last Quarter

Hourly Weather History & Observations

Time (CDT) Temp. Heat Index Dew Point Humidity Pressure Visibility Wind Dir Wind Speed Gust Speed Precip Events Conditions
12:55 AM 61.5 °F - 59.2 °F 92% 30.22 in 10.0 mi Calm Calm - N/A   Scattered Clouds
1:55 AM 59.9 °F - 58.3 °F 94% 30.21 in 10.0 mi Calm Calm - N/A   Partly Cloudy
2:55 AM 58.8 °F - 57.7 °F 96% 30.20 in 10.0 mi Calm Calm - N/A   Scattered Clouds
3:55 AM 57.7 °F - 56.8 °F 97% 30.19 in 9.0 mi Calm Calm - N/A   Clear
4:55 AM 57.6 °F - 56.7 °F 97% 30.19 in 10.0 mi NW 3.5 mph - N/A   Clear
5:55 AM 57.4 °F - 57.2 °F 99% 30.20 in 10.0 mi Calm Calm - N/A   Clear
6:55 AM 55.2 °F - 54.9 °F 99% 30.21 in 8.0 mi Calm Calm - N/A   Partly Cloudy
7:55 AM 63.0 °F - 59.5 °F 89% 30.24 in 10.0 mi SSE 3.5 mph - N/A   Clear
8:55 AM 67.8 °F - 62.2 °F 82% 30.25 in 10.0 mi South 3.5 mph - N/A   Partly Cloudy
9:55 AM 73.6 °F - 61.3 °F 65% 30.26 in 10.0 mi Calm Calm - N/A   Partly Cloudy
10:55 AM 76.8 °F - 58.8 °F 54% 30.26 in 10.0 mi Variable 3.5 mph - N/A   Smoke
11:55 AM 78.6 °F - 58.1 °F 49% 30.25 in 10.0 mi West 4.6 mph - N/A   Smoke
12:55 PM 81.0 °F 80.9 °F 56.5 °F 43% 30.22 in 10.0 mi WSW 5.8 mph - N/A   Smoke
1:55 PM 82.6 °F 82.0 °F 56.1 °F 40% 30.20 in 10.0 mi Variable 5.8 mph - N/A   Scattered Clouds
2:55 PM 83.5 °F 82.5 °F 55.4 °F 38% 30.18 in 10.0 mi South 9.2 mph - N/A   Partly Cloudy
3:55 PM 83.3 °F 82.1 °F 53.4 °F 36% 30.17 in 10.0 mi South 11.5 mph - N/A   Partly Cloudy
4:55 PM 81.9 °F 81.2 °F 54.3 °F 39% 30.16 in 10.0 mi South 10.4 mph - N/A   Scattered Clouds
5:55 PM 79.7 °F - 54.1 °F 41% 30.16 in 10.0 mi South 9.2 mph - N/A   Scattered Clouds
6:55 PM 75.2 °F - 55.2 °F 50% 30.17 in 10.0 mi SSW 6.9 mph - N/A   Scattered Clouds
7:55 PM 68.4 °F - 56.8 °F 67% 30.18 in 10.0 mi South 4.6 mph - N/A   Partly Cloudy
8:55 PM 66.0 °F - 57.7 °F 75% 30.19 in 10.0 mi Calm Calm - N/A   Partly Cloudy
9:55 PM 62.6 °F - 58.1 °F 85% 30.20 in 10.0 mi South 3.5 mph - N/A   Partly Cloudy
10:55 PM 61.7 °F - 58.3 °F 89% 30.20 in 10.0 mi South 3.5 mph - N/A   Partly Cloudy
11:55 PM 59.7 °F - 58.8 °F 97% 30.20 in 5.0 mi Calm Calm - N/A   Clear
11:57 PM 59.0 °F - 59.0 °F 100% 30.20 in 2.5 mi Calm Calm - N/A   Clear